SCP
0 0 0 0 0 0 0 0 0 0 0 0 0 0 0 0 0 0 0 0 0 0 0 0 0 0 0 0 0 2 1 1 1 1 1 1 1 1 1 1 1 1 1 1
0 0 0 0 0 0 0 0 0 0 0 0 0 0 0 0 0 0 0 0 0 0 0 0 0 0 0 0 0 1 2 1 2 2 2 1 1 1 1 1 1 1 1 1
0 0 0 0 0 0 0 0 0 0 0 0 0 0 0 0 0 0 0 0 0 0 0 0 0 0 0 0 0 0 0 0 0 2 2 2 2 2 1 2 2 2 1 1
0 0 0 0 0 0 0 0 0 0 0 0 0 0 0 0 0 0 0 0 0 0 0 0 0 0 0 0 0 0 0 0 0 0 1 2 2 3 3 2 2 2 2 2
0 0 0 0 0 0 0 0 0 0 0 0 0 0 0 0 0 0 0 0 0 0 0 0 0 0 0 0 0 0 0 0 0 0 0 0 2 2 2 2 2 2 2 2
0 0 0 0 0 0 0 0 0 0 0 0 0 0 0 0 0 0 0 0 0 0 0 0 0 0 0 0 0 0 0 0 0 0 0 0 0 1 2 2 2 1 1 2
0 0 0 0 0 0 0 0 0 0 0 0 0 0 0 0 0 0 0 0 0 0 0 0 0 0 0 0 0 0 0 0 0 0 0 0 0 1 2 2 3 2 2 2
0 0 0 0 0 0 0 0 0 0 0 0 0 0 0 0 0 0 0 0 0 0 0 0 0 0 0 0 0 0 0 0 0 0 0 0 0 0 1 2 2 2 2 1
0 0 0 0 0 0 0 0 0 0 0 0 0 0 0 0 0 0 0 0 0 0 0 0 0 0 0 0 0 0 0 0 0 0 0 0 0 0 0 1 1 1 2 1
0 0 0 0 0 0 0 0 0 0 0 0 0 0 0 0 0 0 0 0 0 0 0 0 0 0 0 0 0 0 0 0 0 0 0 0 0 0 0 0 0 0 0 0
0 0 0 0 0 0 0 0 0 0 0 0 0 0 0 0 0 0 0 0 0 0 0 0 0 0 0 0 0 0 0 0 0 0 0 0 0 0 0 0 0 0 0 0
0 0 0 0 0 0 0 0 0 0 0 0 0 0 0 0 0 0 0 0 0 0 0 0 0 0 0 0 0 0 0 0 0 0 0 0 0 0 -0 -0 0 0 0 0
0 0 0 0 0 0 0 0 0 0 0 0 0 0 0 0 0 0 0 0 0 0 0 0 0 0 0 0 0 0 0 0 0 0 0 0 -0 0 0 0 -0 0 0 0
0 0 0 0 0 0 0 0 0 0 0 0 0 0 0 0 0 0 0 0 0 0 0 0 0 0 0 0 0 0 0 0 0 0 0 0 0 0 0 0 0 0 -0 -0
0 0 0 0 0 0 0 0 0 0 0 0 0 0 0 0 0 0 0 0 0 0 0 0 0 0 0 0 0 0 0 0 0 0 0 0 0 0 0 0 0 0 0 0
0 0 0 0 0 0 0 0 0 0 0 0 0 0 0 0 0 0 0 0 0 0 0 0 0 0 0 0 0 0 0 0 0 0 0 0 0 0 0 0 0 0 0 0
0 0 0 0 0 0 0 0 0 0 0 0 0 0 0 0 0 0 0 0 0 0 0 0 0 0 0 0 0 0 0 0 0 0 0 0 0 0 0 0 0 0 0 0
-0 -0 0 0 0 0 0 0 0 0 0 0 0 0 0 0 0 0 0 0 0 0 0 0 0 0 0 0 0 0 0 0 0 0 0 0 0 0 0 0 0 0 0 0
-0 -0 -0 -0 0 0 0 0 0 0 0 0 0 0 0 0 0 0 0 0 0 0 0 0 0 0 0 0 0 0 0 0 0 0 0 0 0 0 0 0 0 0 0 0
0 0 0 0 0 0 0 0 0 0 0 0 0 0 0 0 0 0 0 0 0 0 0 0 0 -0 -0 0 0 0 0 0 0 0 0 0 0 0 0 0 0 0 0 0
0 0 0 0 0 0 0 0 0 0 0 0 0 0 0 0 0 0 0 0 0 0 0 0 0 -0 -0 -0 0 -0 0 0 0 0 0 0 0 0 0 0 0 0 0 0
0 0 0 0 0 0 0 0 0 0 0 0 0 0 0 0 0 0 0 0 0 0 0 0 0 0 -0 -0 -0 -0 -0 0 0 0 0 0 0 0 0 0 0 0 0 0
0 0 0 0 0 0 0 0 0 0 0 0 0 0 0 0 0 0 0 0 0 0 0 0 0 0 -0 -0 -0 -0 -0 -0 -0 0 0 0 0 0 0 0 0 0 0 0
0 0 0 0 0 0 0 0 0 0 0 0 0 0 0 0 0 0 0 0 0 0 0 0 0 0 -0 -0 -0 -0 -0 -0 -0 -0 0 0 0 0 0 0 0 0 0 0
0 0 0 0 0 0 0 0 0 0 0 0 0 0 0 0 0 0 0 0 0 0 0 0 0 -0 0 0 -0 -0 -0 -0 -0 -0 -0 0 0 0 0 0 0 0 0 0
0 0 0 0 0 0 0 0 0 0 0 0 0 -0 -0 0 0 0 0 0 0 0 0 0 0 0 0 0 0 -0 -0 -0 -0 -0 -0 0 0 0 0 0 0 0 0 0
0 0 0 0 0 -0 -0 -0 0 0 0 0 -0 0 -0 0 0 0 0 0 0 0 0 0 0 0 0 0 0 0 -0 -0 -0 0 0 0 0 0 0 0 0 0 0 0
Wind_Speed_500mb
7 13 14 20 28 15 31 32 17 39 40 34 32 26 28 33 28 29 31 34 36 36 36 41 41 26 3 4 1 13 12 25 39 39 38 40 41 42 43 45 47 47 43 43
14 2 2 12 14 9 11 5 15 45 33 30 27 30 24 23 25 26 28 30 31 33 34 35 39 39 28 9 9 6 10 16 28 19 38 40 41 43 44 46 48 50 51 49
24 13 11 23 26 23 17 11 17 27 35 28 22 18 18 20 21 23 23 24 26 29 31 32 33 32 38 34 15 8 11 14 22 30 30 34 38 42 46 47 46 52 54 53
22 11 23 7 13 6 16 18 12 27 23 27 21 15 24 17 16 17 19 20 21 21 23 25 26 28 28 30 35 18 10 13 17 17 23 33 40 41 44 47 48 50 54 57
21 20 10 13 10 13 22 21 3 25 20 21 17 20 23 14 13 13 14 16 18 20 21 22 22 25 27 25 26 29 26 16 18 18 21 21 27 35 44 51 51 54 55 57
15 22 31 28 22 6 3 21 19 14 17 14 13 20 25 5 8 10 13 15 19 22 22 21 22 23 25 24 24 24 28 30 27 21 16 22 33 27 31 43 43 47 53 58
19 16 8 22 17 13 18 12 24 18 15 8 4 26 13 8 11 14 16 16 18 21 22 23 24 26 27 26 23 25 27 26 29 28 21 15 9 10 23 36 39 46 49 50
18 19 20 26 15 11 21 27 24 17 14 14 11 6 8 10 12 14 16 19 20 21 21 23 26 28 30 30 31 30 30 30 31 33 31 28 27 18 16 20 26 42 47 51
7 9 16 19 11 22 19 23 17 16 14 9 5 3 5 8 11 14 17 20 21 22 25 24 23 27 34 35 35 39 34 36 34 36 37 38 34 28 21 19 17 23 28 42
7 17 10 19 14 12 12 17 15 12 9 6 4 3 5 9 11 15 18 23 23 21 19 22 26 30 36 40 40 39 42 37 40 35 36 40 36 26 24 22 23 25 26 28
17 8 15 19 18 18 18 16 13 9 6 4 2 4 8 10 12 13 16 19 23 24 25 27 30 34 35 36 39 41 44 40 40 42 36 37 39 34 36 36 31 36 35 31
10 18 25 19 32 24 23 18 13 10 7 2 1 5 9 10 10 13 15 20 21 25 28 32 35 33 36 31 33 38 44 44 41 41 43 40 38 42 40 49 54 54 49 53
22 8 15 6 24 30 26 21 17 12 8 5 4 6 12 13 13 16 16 18 20 25 26 28 31 32 32 35 31 33 35 40 42 44 46 48 47 48 46 43 45 44 47 51
22 14 15 18 24 26 23 21 18 14 12 9 7 9 11 15 18 17 18 23 21 23 24 24 29 35 37 36 40 45 45 55 54 52 50 52 51 51 52 49 47 42 37 43
21 21 21 25 22 26 23 22 21 17 16 15 11 10 11 15 14 17 17 17 20 19 21 26 27 28 31 37 39 43 44 47 44 49 51 56 56 53 52 53 59 52 44 41
25 29 27 20 20 26 27 26 24 22 20 16 15 12 11 10 10 10 12 14 16 23 23 29 34 34 37 40 46 50 49 47 51 52 54 59 60 59 58 58 59 56 54 49
15 21 27 30 29 28 29 30 27 25 22 17 16 14 11 10 7 10 15 16 21 23 24 29 34 35 42 44 45 45 54 53 51 56 56 61 61 63 61 59 60 61 59 50
28 24 20 24 22 21 27 31 28 28 26 22 19 19 17 11 8 9 9 12 14 17 20 22 31 41 44 43 47 48 50 52 56 64 65 61 52 55 59 62 62 62 60 52
27 28 30 28 28 27 28 32 33 32 30 27 25 27 20 16 12 9 7 8 11 18 22 24 36 44 43 46 51 49 46 51 56 59 58 69 70 66 51 53 55 60 59 58
29 29 36 42 39 42 40 41 41 43 41 35 31 30 25 24 22 17 11 10 9 14 22 24 33 40 43 46 52 47 44 44 47 55 60 66 72 78 76 68 66 67 77 74
31 31 32 34 31 40 45 46 45 45 50 47 41 38 32 28 27 24 17 14 8 18 18 26 29 37 38 47 50 49 45 45 45 47 50 54 57 60 63 63 70 66 73 74
16 21 26 29 32 34 37 48 57 50 51 52 46 42 35 30 28 27 25 22 11 16 15 21 22 44 38 43 45 43 46 47 45 47 49 47 46 48 55 63 68 71 71 69
30 32 36 38 37 36 39 37 39 50 52 56 53 40 34 29 24 22 18 16 12 10 10 16 27 35 39 38 41 50 47 47 46 44 43 41 39 40 42 47 53 56 58 57
23 25 29 30 32 32 32 27 28 31 35 41 35 33 25 21 21 21 20 18 17 13 14 12 24 31 29 32 48 48 50 51 45 41 38 37 34 30 31 31 35 40 42 41
28 31 34 30 27 28 22 24 25 20 32 38 40 31 26 23 19 10 13 15 17 13 16 22 23 30 19 41 42 42 60 50 47 40 31 28 25 19 18 21 23 25 26 27
23 33 42 40 35 28 22 23 22 20 35 39 42 37 33 21 19 12 13 9 12 15 17 19 12 17 23 31 31 42 40 54 44 43 32 27 20 12 4 3 10 16 21 27
27 31 32 27 16 15 14 11 9 18 35 29 22 18 22 20 16 11 6 7 9 11 17 21 21 16 16 28 20 36 31 52 47 37 40 33 30 32 32 29 27 29 28 33
Wind_Direction_500mb
61 6 339 179 199 206 243 257 312 129 135 136 127 109 100 107 93 82 71 61 56 50 44 40 31 27 10 157 275 205 219 227 214 218 222 224 223 224 225 224 227 233 236 232
212 259 255 247 201 217 281 336 259 111 108 101 122 123 108 99 91 77 63 54 50 46 42 37 34 26 18 356 243 208 193 228 244 220 222 227 227 225 227 228 229 230 231 235
256 181 259 245 237 211 216 212 305 166 142 142 130 121 115 102 82 68 59 48 40 34 31 28 27 22 18 11 356 277 217 229 238 240 243 232 231 229 230 232 227 232 233 233
254 162 236 95 10 315 197 150 92 96 126 134 133 139 121 93 70 49 38 32 28 22 16 17 16 15 18 15 7 3 289 255 238 226 237 238 235 232 233 234 236 233 235 237
250 212 153 162 171 176 184 158 209 135 143 147 151 145 135 106 56 40 17 4 358 356 356 358 358 358 360 10 9 4 359 336 283 262 253 240 240 247 246 240 238 236 236 239
216 263 228 81 102 65 233 178 169 168 156 158 190 210 111 96 8 355 343 338 335 332 336 331 337 337 340 345 352 350 355 350 355 342 294 274 260 253 241 240 242 246 246 240
231 239 118 106 126 159 208 113 143 153 139 156 236 55 85 48 16 356 341 329 317 322 315 317 321 322 321 322 327 326 329 332 333 332 332 323 284 254 274 261 253 244 240 240
244 230 233 132 141 230 95 127 130 130 122 114 103 76 67 39 18 7 358 346 333 318 305 301 305 311 308 307 302 305 311 312 313 316 310 313 307 299 284 291 283 262 254 252
309 36 93 139 76 126 138 140 131 132 130 119 111 63 8 350 349 348 348 343 340 327 314 310 303 300 301 299 302 296 291 297 298 301 305 302 301 311 310 315 291 285 279 270
322 177 168 149 135 155 164 139 144 138 129 124 100 48 359 338 335 333 336 338 341 332 323 310 307 303 294 293 293 292 289 286 292 291 296 297 291 288 290 281 279 281 283 294
238 143 177 192 186 169 157 151 150 140 132 110 84 32 357 342 331 325 322 329 325 325 321 319 317 313 309 298 287 286 284 282 278 285 285 286 290 283 276 267 274 277 271 278
237 216 205 221 196 186 184 184 180 178 174 165 38 5 349 339 326 317 314 316 321 321 315 313 311 311 312 296 273 274 276 274 274 273 279 278 277 286 286 284 279 276 275 271
241 208 223 189 187 191 192 193 192 195 201 226 257 324 335 334 327 318 319 314 317 316 312 314 315 309 314 300 280 277 279 269 268 271 272 275 282 279 282 281 289 290 287 285
244 220 216 195 187 193 199 194 196 202 223 233 248 300 313 320 323 319 311 308 313 318 319 321 321 313 310 306 301 283 283 273 274 275 272 272 271 274 280 276 278 279 283 289
222 214 226 207 210 195 200 195 203 221 227 226 249 275 293 303 315 313 307 319 318 319 322 329 328 318 324 320 307 295 290 281 271 268 268 268 268 267 266 268 273 279 278 276
248 225 226 213 208 206 203 210 222 229 228 232 245 260 284 290 300 315 318 313 330 330 323 325 326 319 323 317 313 300 290 277 277 274 269 267 267 267 267 267 268 268 271 270
235 209 212 220 224 225 223 231 226 225 228 224 239 249 227 239 269 300 319 322 317 315 323 321 325 325 321 317 309 299 295 284 280 272 272 270 264 264 264 264 264 264 266 270
220 221 228 232 231 239 235 229 229 228 230 227 222 219 215 230 269 295 311 305 303 319 322 329 322 319 321 314 314 307 296 289 283 275 268 266 269 267 264 264 262 263 264 261
232 235 241 240 243 249 247 236 225 228 227 207 224 213 221 229 229 236 265 306 314 324 322 316 315 326 318 314 312 307 299 291 284 280 278 270 269 268 270 263 261 264 264 262
246 246 246 249 248 249 246 239 226 218 218 214 222 219 224 224 222 224 246 273 302 328 331 321 324 326 321 320 316 315 304 292 284 277 274 274 269 264 262 265 264 261 263 263
260 265 268 274 271 254 249 248 238 227 216 212 215 217 222 223 221 229 246 250 251 349 349 328 341 337 330 327 326 328 323 314 305 294 285 279 274 266 262 263 261 263 265 267
291 282 280 284 281 276 264 253 247 240 229 208 209 213 216 222 227 238 248 249 255 336 335 337 331 346 345 338 347 343 336 330 319 308 299 289 282 277 272 266 263 263 263 263
302 297 293 288 286 282 272 261 253 245 234 222 209 206 212 228 232 240 248 222 212 296 312 322 340 351 3 355 357 0 352 343 336 325 314 303 290 287 281 272 268 264 262 258
307 303 299 297 290 286 277 267 256 242 224 215 202 187 222 232 234 232 228 215 231 288 272 303 346 344 7 359 5 9 359 356 345 337 326 313 302 291 283 273 265 261 255 249
312 309 309 303 291 293 291 277 254 239 222 202 197 197 203 217 228 207 191 212 259 285 284 296 327 356 332 330 346 348 9 2 360 356 347 334 319 299 282 272 258 246 234 225
336 321 308 299 289 280 286 293 240 251 208 178 168 189 204 201 202 218 218 229 248 281 286 292 299 312 338 347 355 360 5 11 14 16 19 25 18 13 16 164 169 173 170 162
338 345 344 342 306 265 278 269 222 160 159 174 192 180 179 185 179 178 218 257 275 293 304 306 306 296 322 341 355 348 358 12 17 20 32 40 50 63 67 76 97 102 114 122
Wind_Speed_850mb
7 13 14 20 28 15 31 32 17 39 40 34 32 26 28 33 28 29 31 34 36 36 36 41 41 26 3 4 1 13 12 25 39 39 38 40 41 42 43 45 47 47 43 43
14 2 2 12 14 9 11 5 15 45 33 30 27 30 24 23 25 26 28 30 31 33 34 35 39 39 28 9 9 6 10 16 28 19 38 40 41 43 44 46 48 50 51 49
24 13 11 23 26 23 17 11 17 27 35 28 22 18 18 20 21 23 23 24 26 29 31 32 33 32 38 34 15 8 11 14 22 30 30 34 38 42 46 47 46 52 54 53
22 11 23 7 13 6 16 18 12 27 23 27 21 15 24 17 16 17 19 20 21 21 23 25 26 28 28 30 35 18 10 13 17 17 23 33 40 41 44 47 48 50 54 57
21 20 10 13 10 13 22 21 3 25 20 21 17 20 23 14 13 13 14 16 18 20 21 22 22 25 27 25 26 29 26 16 18 18 21 21 27 35 44 51 51 54 55 57
15 22 31 28 22 6 3 21 19 14 17 14 13 20 25 5 8 10 13 15 19 22 22 21 22 23 25 24 24 24 28 30 27 21 16 22 33 27 31 43 43 47 53 58
19 16 8 22 17 13 18 12 24 18 15 8 4 26 13 8 11 14 16 16 18 21 22 23 24 26 27 26 23 25 27 26 29 28 21 15 9 10 23 36 39 46 49 50
18 19 20 26 15 11 21 27 24 17 14 14 11 6 8 10 12 14 16 19 20 21 21 23 26 28 30 30 31 30 30 30 31 33 31 28 27 18 16 20 26 42 47 51
7 9 16 19 11 22 19 23 17 16 14 9 5 3 5 8 11 14 17 20 21 22 25 24 23 27 34 35 35 39 34 36 34 36 37 38 34 28 21 19 17 23 28 42
7 17 10 19 14 12 12 17 15 12 9 6 4 3 5 9 11 15 18 23 23 21 19 22 26 30 36 40 40 39 42 37 40 35 36 40 36 26 24 22 23 25 26 28
17 8 15 19 18 18 18 16 13 9 6 4 2 4 8 10 12 13 16 19 23 24 25 27 30 34 35 36 39 41 44 40 40 42 36 37 39 34 36 36 31 36 35 31
10 18 25 19 32 24 23 18 13 10 7 2 1 5 9 10 10 13 15 20 21 25 28 32 35 33 36 31 33 38 44 44 41 41 43 40 38 42 40 49 54 54 49 53
22 8 15 6 24 30 26 21 17 12 8 5 4 6 12 13 13 16 16 18 20 25 26 28 31 32 32 35 31 33 35 40 42 44 46 48 47 48 46 43 45 44 47 51
22 14 15 18 24 26 23 21 18 14 12 9 7 9 11 15 18 17 18 23 21 23 24 24 29 35 37 36 40 45 45 55 54 52 50 52 51 51 52 49 47 42 37 43
21 21 21 25 22 26 23 22 21 17 16 15 11 10 11 15 14 17 17 17 20 19 21 26 27 28 31 37 39 43 44 47 44 49 51 56 56 53 52 53 59 52 44 41
25 29 27 20 20 26 27 26 24 22 20 16 15 12 11 10 10 10 12 14 16 23 23 29 34 34 37 40 46 50 49 47 51 52 54 59 60 59 58 58 59 56 54 49
15 21 27 30 29 28 29 30 27 25 22 17 16 14 11 10 7 10 15 16 21 23 24 29 34 35 42 44 45 45 54 53 51 56 56 61 61 63 61 59 60 61 59 50
28 24 20 24 22 21 27 31 28 28 26 22 19 19 17 11 8 9 9 12 14 17 20 22 31 41 44 43 47 48 50 52 56 64 65 61 52 55 59 62 62 62 60 52
27 28 30 28 28 27 28 32 33 32 30 27 25 27 20 16 12 9 7 8 11 18 22 24 36 44 43 46 51 49 46 51 56 59 58 69 70 66 51 53 55 60 59 58
29 29 36 42 39 42 40 41 41 43 41 35 31 30 25 24 22 17 11 10 9 14 22 24 33 40 43 46 52 47 44 44 47 55 60 66 72 78 76 68 66 67 77 74
31 31 32 34 31 40 45 46 45 45 50 47 41 38 32 28 27 24 17 14 8 18 18 26 29 37 38 47 50 49 45 45 45 47 50 54 57 60 63 63 70 66 73 74
16 21 26 29 32 34 37 48 57 50 51 52 46 42 35 30 28 27 25 22 11 16 15 21 22 44 38 43 45 43 46 47 45 47 49 47 46 48 55 63 68 71 71 69
30 32 36 38 37 36 39 37 39 50 52 56 53 40 34 29 24 22 18 16 12 10 10 16 27 35 39 38 41 50 47 47 46 44 43 41 39 40 42 47 53 56 58 57
23 25 29 30 32 32 32 27 28 31 35 41 35 33 25 21 21 21 20 18 17 13 14 12 24 31 29 32 48 48 50 51 45 41 38 37 34 30 31 31 35 40 42 41
28 31 34 30 27 28 22 24 25 20 32 38 40 31 26 23 19 10 13 15 17 13 16 22 23 30 19 41 42 42 60 50 47 40 31 28 25 19 18 21 23 25 26 27
23 33 42 40 35 28 22 23 22 20 35 39 42 37 33 21 19 12 13 9 12 15 17 19 12 17 23 31 31 42 40 54 44 43 32 27 20 12 4 3 10 16 21 27
27 31 32 27 16 15 14 11 9 18 35 29 22 18 22 20 16 11 6 7 9 11 17 21 21 16 16 28 20 36 31 52 47 37 40 33 30 32 32 29 27 29 28 33
Wind_Direction_850mb
61 6 339 179 199 206 243 257 312 129 135 136 127 109 100 107 93 82 71 61 56 50 44 40 31 27 10 157 275 205 219 227 214 218 222 224 223 224 225 224 227 233 236 232
212 259 255 247 201 217 281 336 259 111 108 101 122 123 108 99 91 77 63 54 50 46 42 37 34 26 18 356 243 208 193 228 244 220 222 227 227 225 227 228 229 230 231 235
256 181 259 245 237 211 216 212 305 166 142 142 130 121 115 102 82 68 59 48 40 34 31 28 27 22 18 11 356 277 217 229 238 240 243 232 231 229 230 232 227 232 233 233
254 162 236 95 10 315 197 150 92 96 126 134 133 139 121 93 70 49 38 32 28 22 16 17 16 15 18 15 7 3 289 255 238 226 237 238 235 232 233 234 236 233 235 237
250 212 153 162 171 176 184 158 209 135 143 147 151 145 135 106 56 40 17 4 358 356 356 358 358 358 360 10 9 4 359 336 283 262 253 240 240 247 246 240 238 236 236 239
216 263 228 81 102 65 233 178 169 168 156 158 190 210 111 96 8 355 343 338 335 332 336 331 337 337 340 345 352 350 355 350 355 342 294 274 260 253 241 240 242 246 246 240
231 239 118 106 126 159 208 113 143 153 139 156 236 55 85 48 16 356 341 329 317 322 315 317 321 322 321 322 327 326 329 332 333 332 332 323 284 254 274 261 253 244 240 240
244 230 233 132 141 230 95 127 130 130 122 114 103 76 67 39 18 7 358 346 333 318 305 301 305 311 308 307 302 305 311 312 313 316 310 313 307 299 284 291 283 262 254 252
309 36 93 139 76 126 138 140 131 132 130 119 111 63 8 350 349 348 348 343 340 327 314 310 303 300 301 299 302 296 291 297 298 301 305 302 301 311 310 315 291 285 279 270
322 177 168 149 135 155 164 139 144 138 129 124 100 48 359 338 335 333 336 338 341 332 323 310 307 303 294 293 293 292 289 286 292 291 296 297 291 288 290 281 279 281 283 294
238 143 177 192 186 169 157 151 150 140 132 110 84 32 357 342 331 325 322 329 325 325 321 319 317 313 309 298 287 286 284 282 278 285 285 286 290 283 276 267 274 277 271 278
237 216 205 221 196 186 184 184 180 178 174 165 38 5 349 339 326 317 314 316 321 321 315 313 311 311 312 296 273 274 276 274 274 273 279 278 277 286 286 284 279 276 275 271
241 208 223 189 187 191 192 193 192 195 201 226 257 324 335 334 327 318 319 314 317 316 312 314 315 309 314 300 280 277 279 269 268 271 272 275 282 279 282 281 289 290 287 285
244 220 216 195 187 193 199 194 196 202 223 233 248 300 313 320 323 319 311 308 313 318 319 321 321 313 310 306 301 283 283 273 274 275 272 272 271 274 280 276 278 279 283 289
222 214 226 207 210 195 200 195 203 221 227 226 249 275 293 303 315 313 307 319 318 319 322 329 328 318 324 320 307 295 290 281 271 268 268 268 268 267 266 268 273 279 278 276
248 225 226 213 208 206 203 210 222 229 228 232 245 260 284 290 300 315 318 313 330 330 323 325 326 319 323 317 313 300 290 277 277 274 269 267 267 267 267 267 268 268 271 270
235 209 212 220 224 225 223 231 226 225 228 224 239 249 227 239 269 300 319 322 317 315 323 321 325 325 321 317 309 299 295 284 280 272 272 270 264 264 264 264 264 264 266 270
220 221 228 232 231 239 235 229 229 228 230 227 222 219 215 230 269 295 311 305 303 319 322 329 322 319 321 314 314 307 296 289 283 275 268 266 269 267 264 264 262 263 264 261
232 235 241 240 243 249 247 236 225 228 227 207 224 213 221 229 229 236 265 306 314 324 322 316 315 326 318 314 312 307 299 291 284 280 278 270 269 268 270 263 261 264 264 262
246 246 246 249 248 249 246 239 226 218 218 214 222 219 224 224 222 224 246 273 302 328 331 321 324 326 321 320 316 315 304 292 284 277 274 274 269 264 262 265 264 261 263 263
260 265 268 274 271 254 249 248 238 227 216 212 215 217 222 223 221 229 246 250 251 349 349 328 341 337 330 327 326 328 323 314 305 294 285 279 274 266 262 263 261 263 265 267
291 282 280 284 281 276 264 253 247 240 229 208 209 213 216 222 227 238 248 249 255 336 335 337 331 346 345 338 347 343 336 330 319 308 299 289 282 277 272 266 263 263 263 263
302 297 293 288 286 282 272 261 253 245 234 222 209 206 212 228 232 240 248 222 212 296 312 322 340 351 3 355 357 0 352 343 336 325 314 303 290 287 281 272 268 264 262 258
307 303 299 297 290 286 277 267 256 242 224 215 202 187 222 232 234 232 228 215 231 288 272 303 346 344 7 359 5 9 359 356 345 337 326 313 302 291 283 273 265 261 255 249
312 309 309 303 291 293 291 277 254 239 222 202 197 197 203 217 228 207 191 212 259 285 284 296 327 356 332 330 346 348 9 2 360 356 347 334 319 299 282 272 258 246 234 225
336 321 308 299 289 280 286 293 240 251 208 178 168 189 204 201 202 218 218 229 248 281 286 292 299 312 338 347 355 360 5 11 14 16 19 25 18 13 16 164 169 173 170 162
338 345 344 342 306 265 278 269 222 160 159 174 192 180 179 185 179 178 218 257 275 293 304 306 306 296 322 341 355 348 358 12 17 20 32 40 50 63 67 76 97 102 114 122